| time (UTC) | temp F | wind direction | speed MPH | gust MPH | rain 1hr in | rain 24hr in | rain mn in | humidity % | barometer mb |
| 20260507003203 | 58 | 44 | 0.0 | 1.0 | 0.00 | 0.02 | 0.00 | 61 | 1015.7 |
| 20260507002704 | 58 | 44 | 0.0 | 0.0 | 0.00 | 0.02 | 0.00 | 58 | 1015.8 |
| 20260507002204 | 59 | 44 | 0.0 | 1.0 | 0.00 | 0.02 | 0.00 | 56 | 1015.8 |
| 20260507001204 | 60 | 43 | 0.0 | 0.0 | 0.00 | 0.02 | 0.00 | 55 | 1015.7 |
| 20260507000704 | 61 | 43 | 0.0 | 3.0 | 0.00 | 0.02 | 0.00 | 53 | 1015.6 |
| 20260507000205 | 61 | 57 | 1.0 | 3.0 | 0.00 | 0.02 | 0.00 | 52 | 1015.5 |
| 20260506235703 | 62 | 26 | 1.0 | 3.0 | 0.00 | 0.02 | 0.00 | 51 | 1015.5 |
| 20260506235204 | 61 | 256 | 1.0 | 3.0 | 0.00 | 0.02 | 0.00 | 50 | 1015.5 |
| 20260506234703 | 61 | 43 | 1.0 | 3.0 | 0.00 | 0.02 | 0.00 | 51 | 1015.4 |
| 20260506233704 | 62 | 353 | 1.0 | 7.0 | 0.00 | 0.02 | 0.00 | 52 | 1015.2 |
| 20260506232704 | 61 | 349 | 3.0 | 8.0 | 0.00 | 0.02 | 0.00 | 51 | 1014.9 |
| 20260506232204 | 61 | 34 | 2.0 | 6.0 | 0.00 | 0.02 | 0.00 | 52 | 1014.8 |
| 20260506231203 | 61 | 76 | 3.0 | 12.0 | 0.00 | 0.02 | 0.00 | 53 | 1014.7 |
| 20260506230704 | 61 | 351 | 3.0 | 12.0 | 0.00 | 0.02 | 0.00 | 53 | 1014.7 |
| 20260506225704 | 61 | 36 | 3.0 | 13.0 | 0.00 | 0.02 | 0.00 | 53 | 1014.6 |
| 20260506225203 | 61 | 31 | 3.0 | 12.0 | 0.00 | 0.02 | 0.00 | 53 | 1014.6 |
| 20260506224704 | 61 | 50 | 3.0 | 9.0 | 0.00 | 0.02 | 0.00 | 52 | 1014.8 |
| 20260506223704 | 61 | 41 | 2.0 | 7.0 | 0.00 | 0.02 | 0.00 | 54 | 1014.9 |
| 20260506223204 | 61 | 19 | 2.0 | 3.0 | 0.00 | 0.02 | 0.00 | 54 | 1014.9 |
| 20260506222703 | 60 | 4 | 2.0 | 5.0 | 0.00 | 0.02 | 0.00 | 52 | 1014.9 |
| 20260506222204 | 61 | 320 | 2.0 | 7.0 | 0.00 | 0.02 | 0.00 | 53 | 1014.9 |
| 20260506221704 | 61 | 24 | 3.0 | 7.0 | 0.00 | 0.02 | 0.00 | 52 | 1014.8 |
| 20260506221204 | 62 | 355 | 2.0 | 5.0 | 0.00 | 0.02 | 0.00 | 52 | 1014.8 |
| 20260506220704 | 62 | 2 | 2.0 | 9.0 | 0.00 | 0.02 | 0.00 | 51 | 1014.7 |
| 20260506215704 | 63 | 340 | 2.0 | 7.0 | 0.00 | 0.02 | 0.00 | 52 | 1014.7 |
| 20260506215203 | 63 | 282 | 2.0 | 6.0 | 0.00 | 0.02 | 0.00 | 55 | 1014.8 |
| 20260506214704 | 63 | 313 | 0.0 | 1.0 | 0.00 | 0.02 | 0.00 | 55 | 1014.8 |
| 20260506214204 | 62 | 288 | 2.0 | 7.0 | 0.00 | 0.02 | 0.00 | 54 | 1014.9 |
| 20260506213204 | 63 | 28 | 4.0 | 12.0 | 0.00 | 0.02 | 0.00 | 52 | 1015.0 |
| 20260506212704 | 63 | 291 | 1.0 | 5.0 | 0.00 | 0.02 | 0.00 | 53 | 1014.9 |
| 20260506212203 | 63 | 314 | 3.0 | 7.0 | 0.00 | 0.02 | 0.00 | 52 | 1015.0 |
| 20260506211704 | 63 | 248 | 2.0 | 3.0 | 0.00 | 0.02 | 0.00 | 54 | 1015.2 |
| 20260506211204 | 62 | 44 | 1.0 | 3.0 | 0.00 | 0.02 | 0.00 | 54 | 1015.5 |
| 20260506210703 | 62 | 316 | 1.0 | 7.0 | 0.00 | 0.02 | 0.00 | 53 | 1015.5 |
| 20260506210204 | 62 | 325 | 2.0 | 8.0 | 0.00 | 0.02 | 0.00 | 55 | 1015.5 |
| 20260506205704 | 62 | 96 | 2.0 | 5.0 | 0.00 | 0.02 | 0.00 | 54 | 1015.7 |
| 20260506204703 | 62 | 310 | 2.0 | 9.0 | 0.00 | 0.02 | 0.00 | 54 | 1015.8 |
| 20260506204204 | 62 | 306 | 2.0 | 8.0 | 0.00 | 0.02 | 0.00 | 57 | 1015.7 |
| 20260506203704 | 62 | 34 | 1.0 | 5.0 | 0.00 | 0.02 | 0.00 | 54 | 1015.9 |
| 20260506202204 | 61 | 347 | 2.0 | 5.0 | 0.00 | 0.02 | 0.00 | 58 | 1016.0 |
| 20260506201704 | 61 | 293 | 1.0 | 6.0 | 0.00 | 0.02 | 0.00 | 58 | 1016.2 |
| 20260506201204 | 61 | 349 | 2.0 | 10.0 | 0.00 | 0.02 | 0.00 | 58 | 1016.2 |
| 20260506200704 | 60 | 220 | 2.0 | 6.0 | 0.00 | 0.02 | 0.00 | 61 | 1016.2 |
| 20260506200203 | 60 | 10 | 2.0 | 6.0 | 0.00 | 0.02 | 0.00 | 61 | 1016.2 |
| 20260506195704 | 60 | 350 | 2.0 | 7.0 | 0.00 | 0.02 | 0.00 | 64 | 1016.2 |
| 20260506195204 | 60 | 52 | 1.0 | 3.0 | 0.00 | 0.02 | 0.00 | 63 | 1016.2 |
| 20260506194703 | 60 | 243 | 0.0 | 2.0 | 0.00 | 0.02 | 0.00 | 65 | 1016.4 |
| 20260506194204 | 59 | 51 | 1.0 | 5.0 | 0.00 | 0.02 | 0.00 | 62 | 1016.5 |
| 20260506193204 | 58 | 84 | 3.0 | 8.0 | 0.00 | 0.03 | 0.00 | 63 | 1016.5 |
| 20260506192704 | 59 | 50 | 1.0 | 6.0 | 0.00 | 0.03 | 0.00 | 63 | 1016.6 |
| 20260506192203 | 60 | 27 | 2.0 | 6.0 | 0.00 | 0.03 | 0.00 | 63 | 1016.6 |
| 20260506191704 | 61 | 207 | 1.0 | 3.0 | 0.00 | 0.03 | 0.00 | 61 | 1016.6 |
| 20260506190703 | 60 | 272 | 1.0 | 3.0 | 0.00 | 0.03 | 0.00 | 62 | 1016.8 |
| 20260506190203 | 60 | 326 | 1.0 | 3.0 | 0.00 | 0.03 | 0.00 | 61 | 1016.8 |
| 20260506185703 | 60 | 289 | 1.0 | 6.0 | 0.00 | 0.03 | 0.00 | 64 | 1016.9 |
| 20260506185204 | 60 | 300 | 2.0 | 6.0 | 0.00 | 0.03 | 0.00 | 61 | 1016.8 |
| 20260506183704 | 59 | 51 | 2.0 | 6.0 | 0.00 | 0.04 | 0.00 | 60 | 1017.3 |
| 20260506183204 | 59 | 355 | 1.0 | 6.0 | 0.00 | 0.04 | 0.00 | 62 | 1017.4 |
| 20260506181704 | 59 | 290 | 1.0 | 3.0 | 0.00 | 0.04 | 0.00 | 61 | 1017.7 |
| 20260506181204 | 59 | 270 | 1.0 | 3.0 | 0.00 | 0.04 | 0.00 | 64 | 1017.7 |
| 20260506180703 | 58 | 42 | 0.0 | 5.0 | 0.00 | 0.04 | 0.00 | 62 | 1017.8 |
| 20260506180204 | 59 | 72 | 0.0 | 5.0 | 0.00 | 0.04 | 0.00 | 65 | 1017.8 |
| 20260506175204 | 58 | 19 | 1.0 | 3.0 | 0.00 | 0.04 | 0.00 | 64 | 1017.8 |
| 20260506174704 | 58 | 264 | 1.0 | 3.0 | 0.00 | 0.04 | 0.00 | 64 | 1017.7 |
| 20260506174203 | 58 | 352 | 1.0 | 2.0 | 0.00 | 0.04 | 0.00 | 65 | 1017.7 |
| 20260506173204 | 57 | 319 | 2.0 | 5.0 | 0.00 | 0.04 | 0.00 | 64 | 1017.5 |
| 20260506172704 | 57 | 232 | 1.0 | 5.0 | 0.00 | 0.04 | 0.00 | 66 | 1017.5 |
| 20260506171703 | 56 | 260 | 0.0 | 3.0 | 0.00 | 0.04 | 0.00 | 69 | 1017.5 |
| 20260506171204 | 56 | 304 | 1.0 | 5.0 | 0.00 | 0.04 | 0.00 | 69 | 1017.5 |
| 20260506170703 | 56 | 66 | 2.0 | 6.0 | 0.00 | 0.04 | 0.00 | 66 | 1017.5 |
| 20260506170203 | 56 | 85 | 2.0 | 6.0 | 0.00 | 0.04 | 0.00 | 66 | 1017.6 |
| 20260506165704 | 56 | 354 | 1.0 | 5.0 | 0.00 | 0.04 | 0.00 | 68 | 1017.5 |
| 20260506165204 | 56 | 74 | 3.0 | 7.0 | 0.00 | 0.04 | 0.00 | 66 | 1017.3 |
| 20260506164704 | 56 | 101 | 1.0 | 6.0 | 0.00 | 0.04 | 0.00 | 69 | 1017.1 |
| 20260506164204 | 56 | 86 | 2.0 | 7.0 | 0.00 | 0.04 | 0.00 | 68 | 1017.0 |
| 20260506163703 | 56 | 88 | 1.0 | 3.0 | 0.00 | 0.04 | 0.00 | 70 | 1017.0 |
| 20260506163204 | 55 | 52 | 2.0 | 6.0 | 0.00 | 0.04 | 0.00 | 70 | 1017.1 |
| 20260506162204 | 55 | 346 | 2.0 | 3.0 | 0.00 | 0.04 | 0.00 | 70 | 1017.2 |
| 20260506161203 | 54 | 43 | 0.0 | 3.0 | 0.00 | 0.04 | 0.00 | 74 | 1017.3 |
| 20260506160704 | 53 | 61 | 1.0 | 3.0 | 0.00 | 0.04 | 0.00 | 73 | 1017.2 |
| 20260506160203 | 53 | 345 | 1.0 | 9.0 | 0.00 | 0.04 | 0.00 | 73 | 1017.3 |
| 20260506155704 | 52 | 45 | 2.0 | 7.0 | 0.00 | 0.04 | 0.00 | 72 | 1017.1 |
| 20260506155204 | 52 | 42 | 3.0 | 6.0 | 0.00 | 0.04 | 0.00 | 76 | 1017.0 |
| 20260506154703 | 51 | 35 | 3.0 | 6.0 | 0.00 | 0.04 | 0.00 | 75 | 1017.0 |
| 20260506154203 | 52 | 43 | 3.0 | 7.0 | 0.00 | 0.04 | 0.00 | 74 | 1017.3 |
| 20260506153704 | 51 | 6 | 1.0 | 9.0 | 0.00 | 0.04 | 0.00 | 75 | 1017.2 |
| 20260506153204 | 51 | 56 | 2.0 | 7.0 | 0.00 | 0.04 | 0.00 | 73 | 1017.1 |
| 20260506152703 | 51 | 21 | 2.0 | 6.0 | 0.00 | 0.04 | 0.00 | 76 | 1017.3 |
| 20260506152203 | 51 | 53 | 2.0 | 8.0 | 0.00 | 0.04 | 0.00 | 74 | 1017.2 |
| 20260506151203 | 50 | 13 | 2.0 | 6.0 | 0.00 | 0.04 | 0.00 | 77 | 1016.9 |
| 20260506150203 | 50 | 12 | 3.0 | 5.0 | 0.00 | 0.04 | 0.00 | 75 | 1017.2 |
| 20260506145204 | 49 | 18 | 3.0 | 10.0 | 0.00 | 0.04 | 0.00 | 77 | 1016.9 |
| 20260506144704 | 49 | 21 | 3.0 | 9.0 | 0.00 | 0.04 | 0.00 | 77 | 1016.9 |
| 20260506144204 | 49 | 20 | 2.0 | 9.0 | 0.00 | 0.04 | 0.00 | 79 | 1016.9 |
| 20260506143704 | 49 | 304 | 2.0 | 3.0 | 0.00 | 0.04 | 0.00 | 79 | 1017.0 |
| 20260506143204 | 49 | 321 | 0.0 | 3.0 | 0.00 | 0.04 | 0.00 | 83 | 1017.1 |
| 20260506142703 | 49 | 67 | 1.0 | 3.0 | 0.00 | 0.04 | 0.00 | 82 | 1016.9 |
| 20260506142204 | 49 | 65 | 4.0 | 12.0 | 0.00 | 0.04 | 0.00 | 81 | 1016.7 |
| 20260506141204 | 48 | 25 | 0.0 | 3.0 | 0.00 | 0.04 | 0.00 | 84 | 1016.6 |
| 20260506135704 | 48 | 300 | 2.0 | 3.0 | 0.00 | 0.04 | 0.00 | 86 | 1016.7 |
| 20260506135204 | 47 | 301 | 2.0 | 3.0 | 0.00 | 0.04 | 0.00 | 86 | 1016.4 |
| 20260506134704 | 47 | 346 | 1.0 | 3.0 | 0.00 | 0.04 | 0.00 | 87 | 1016.3 |
| 20260506134203 | 47 | 50 | 1.0 | 3.0 | 0.00 | 0.04 | 0.00 | 87 | 1016.4 |
| 20260506133205 | 47 | 309 | 1.0 | 9.0 | 0.00 | 0.04 | 0.00 | 89 | 1016.3 |
| 20260506132704 | 47 | 312 | 1.0 | 3.0 | 0.00 | 0.04 | 0.00 | 88 | 1016.5 |
| 20260506132204 | 47 | 343 | 0.0 | 3.0 | 0.00 | 0.04 | 0.00 | 90 | 1016.4 |
| 20260506131703 | 47 | 324 | 1.0 | 3.0 | 0.00 | 0.04 | 0.00 | 89 | 1016.4 |
| 20260506131203 | 46 | 34 | 1.0 | 2.0 | 0.00 | 0.04 | 0.00 | 90 | 1016.4 |
| 20260506130703 | 46 | 273 | 1.0 | 3.0 | 0.00 | 0.04 | 0.00 | 90 | 1016.4 |
| 20260506130204 | 46 | 335 | 0.0 | 6.0 | 0.00 | 0.04 | 0.00 | 89 | 1016.4 |
| 20260506125204 | 46 | 305 | 0.0 | 5.0 | 0.00 | 0.04 | 0.00 | 90 | 1016.5 |
| 20260506124703 | 46 | 48 | 1.0 | 3.0 | 0.00 | 0.04 | 0.00 | 91 | 1016.4 |
| 20260506124204 | 46 | 37 | 0.0 | 2.0 | 0.00 | 0.04 | 0.00 | 91 | 1016.4 |
| 20260506123203 | 46 | 284 | 2.0 | 7.0 | 0.00 | 0.04 | 0.00 | 91 | 1016.1 |
| 20260506122703 | 46 | 257 | 1.0 | 2.0 | 0.00 | 0.04 | 0.00 | 91 | 1016.3 |
| 20260506122204 | 45 | 302 | 0.0 | 2.0 | 0.00 | 0.04 | 0.00 | 91 | 1016.3 |
| 20260506121203 | 45 | 294 | 1.0 | 2.0 | 0.00 | 0.04 | 0.00 | 91 | 1016.5 |
| 20260506120204 | 45 | 318 | 0.0 | 2.0 | 0.00 | 0.04 | 0.00 | 91 | 1016.2 |
| 20260506115703 | 45 | 354 | 1.0 | 3.0 | 0.00 | 0.04 | 0.00 | 91 | 1016.3 |
| 20260506115204 | 45 | 297 | 1.0 | 2.0 | 0.00 | 0.04 | 0.00 | 91 | 1016.1 |
| 20260506114204 | 45 | 347 | 2.0 | 6.0 | 0.00 | 0.04 | 0.00 | 91 | 1015.3 |
| 20260506113704 | 45 | 346 | 1.0 | 2.0 | 0.00 | 0.04 | 0.00 | 91 | 1015.3 |
| 20260506112704 | 45 | 322 | 1.0 | 2.0 | 0.00 | 0.04 | 0.00 | 92 | 1015.1 |
| 20260506112204 | 45 | 293 | 0.0 | 2.0 | 0.00 | 0.04 | 0.00 | 92 | 1015.3 |
| 20260506110704 | 45 | 273 | 0.0 | 2.0 | 0.00 | 0.04 | 0.00 | 92 | 1014.9 |
| 20260506110203 | 45 | 270 | 0.0 | 1.0 | 0.00 | 0.04 | 0.00 | 92 | 1014.7 |
| 20260506105703 | 45 | 291 | 1.0 | 5.0 | 0.00 | 0.04 | 0.00 | 92 | 1014.7 |
| 20260506105204 | 45 | 282 | 0.0 | 2.0 | 0.00 | 0.04 | 0.00 | 93 | 1014.5 |
| 20260506104704 | 44 | 318 | 0.0 | 2.0 | 0.00 | 0.04 | 0.00 | 93 | 1014.5 |
| 20260506104203 | 44 | 262 | 0.0 | 2.0 | 0.00 | 0.04 | 0.00 | 93 | 1014.3 |
| 20260506103704 | 44 | 340 | 1.0 | 2.0 | 0.00 | 0.04 | 0.00 | 93 | 1014.1 |
| 20260506102703 | 44 | 303 | 0.0 | 0.0 | 0.00 | 0.04 | 0.00 | 93 | 1013.9 |
| 20260506101703 | 44 | 294 | 0.0 | 0.0 | 0.00 | 0.04 | 0.00 | 94 | 1014.0 |
| 20260506100704 | 44 | 330 | 0.0 | 0.0 | 0.00 | 0.04 | 0.00 | 94 | 1013.5 |
| 20260506100203 | 44 | 331 | 0.0 | 1.0 | 0.00 | 0.05 | 0.00 | 94 | 1013.3 |
| 20260506095704 | 44 | 96 | 0.0 | 1.0 | 0.00 | 0.05 | 0.00 | 93 | 1013.0 |
| 20260506094704 | 44 | 70 | 0.0 | 1.0 | 0.00 | 0.05 | 0.00 | 94 | 1013.0 |
| 20260506094204 | 44 | 70 | 1.0 | 2.0 | 0.00 | 0.05 | 0.00 | 94 | 1013.0 |
| 20260506093703 | 44 | 65 | 0.0 | 1.0 | 0.00 | 0.06 | 0.00 | 94 | 1013.2 |
| 20260506092703 | 44 | 11 | 0.0 | 0.0 | 0.00 | 0.06 | 0.00 | 94 | 1013.9 |
| 20260506092204 | 44 | 11 | 0.0 | 1.0 | 0.00 | 0.07 | 0.00 | 93 | 1013.9 |
| 20260506091703 | 44 | 11 | 0.0 | 0.0 | 0.00 | 0.08 | 0.00 | 93 | 1013.4 |
| 20260506091204 | 44 | 11 | 0.0 | 0.0 | 0.00 | 0.09 | 0.00 | 93 | 1013.3 |
| 20260506090703 | 44 | 11 | 0.0 | 1.0 | 0.00 | 0.09 | 0.00 | 93 | 1013.5 |
| 20260506090204 | 44 | 11 | 0.0 | 1.0 | 0.00 | 0.10 | 0.00 | 93 | 1013.5 |
| 20260506085704 | 44 | 24 | 0.0 | 1.0 | 0.00 | 0.12 | 0.00 | 93 | 1013.4 |
| 20260506084704 | 44 | 30 | 0.0 | 0.0 | 0.00 | 0.14 | 0.00 | 92 | 1012.9 |
| 20260506084203 | 44 | 21 | 0.0 | 2.0 | 0.00 | 0.16 | 0.00 | 92 | 1012.6 |
| 20260506083703 | 44 | 73 | 1.0 | 3.0 | 0.00 | 0.18 | 0.00 | 92 | 1012.5 |
| 20260506083204 | 44 | 67 | 0.0 | 2.0 | 0.00 | 0.21 | 0.00 | 92 | 1012.4 |
| 20260506082704 | 44 | 39 | 2.0 | 3.0 | 0.00 | 0.23 | 0.00 | 92 | 1012.4 |
| 20260506081703 | 44 | 31 | 1.0 | 3.0 | 0.00 | 0.26 | 0.00 | 93 | 1011.7 |
| 20260506081204 | 44 | 96 | 2.0 | 5.0 | 0.00 | 0.28 | 0.00 | 92 | 1011.6 |
| 20260506080704 | 44 | 74 | 2.0 | 3.0 | 0.00 | 0.30 | 0.00 | 93 | 1011.5 |
| 20260506080203 | 44 | 57 | 0.0 | 5.0 | 0.00 | 0.33 | 0.00 | 93 | 1011.4 |
| 20260506072203 | 44 | 356 | 0.0 | 1.0 | 0.00 | 0.41 | 0.00 | 93 | 1012.6 |
| 20260506071204 | 44 | 337 | 1.0 | 3.0 | 0.00 | 0.41 | 0.00 | 93 | 1012.5 |
| 20260506062204 | 44 | 47 | 1.0 | 3.0 | 0.00 | 0.41 | 0.00 | 95 | 1012.6 |
| 20260506061704 | 44 | 61 | 0.0 | 1.0 | 0.00 | 0.41 | 0.00 | 95 | 1012.7 |
| 20260506061204 | 44 | 16 | 0.0 | 0.0 | 0.00 | 0.41 | 0.00 | 95 | 1012.9 |
| 20260506060704 | 44 | 298 | 1.0 | 3.0 | 0.00 | 0.41 | 0.00 | 95 | 1012.8 |
| 20260506060204 | 44 | 317 | 1.0 | 5.0 | 0.00 | 0.41 | 0.00 | 95 | 1012.5 |
| 20260506050703 | 45 | 309 | 1.0 | 3.0 | 0.00 | 0.41 | 0.00 | 96 | 1011.8 |
| 20260506050204 | 45 | 300 | 0.0 | 3.0 | 0.00 | 0.41 | 0.00 | 96 | 1011.9 |
| 20260506044703 | 45 | 328 | 1.0 | 3.0 | 0.01 | 0.41 | 0.41 | 96 | 1011.7 |
| 20260506043704 | 45 | 0 | 1.0 | 6.0 | 0.01 | 0.41 | 0.41 | 96 | 1011.5 |
| 20260506042204 | 45 | 129 | 0.0 | 2.0 | 0.01 | 0.41 | 0.41 | 96 | 1011.2 |
| 20260506041703 | 45 | 304 | 1.0 | 1.0 | 0.01 | 0.41 | 0.41 | 96 | 1011.4 |
| 20260506041204 | 45 | 112 | 1.0 | 3.0 | 0.01 | 0.41 | 0.41 | 96 | 1011.5 |
| 20260506040203 | 45 | 331 | 1.0 | 3.0 | 0.02 | 0.41 | 0.41 | 96 | 1011.3 |
| 20260506035704 | 45 | 34 | 2.0 | 3.0 | 0.02 | 0.41 | 0.41 | 96 | 1011.4 |
| 20260506034703 | 45 | 292 | 0.0 | 2.0 | 0.01 | 0.40 | 0.40 | 96 | 1011.2 |
| 20260506034204 | 45 | 334 | 1.0 | 5.0 | 0.01 | 0.40 | 0.40 | 95 | 1011.0 |
| 20260506033704 | 45 | 295 | 2.0 | 7.0 | 0.01 | 0.40 | 0.40 | 95 | 1011.0 |
| 20260506033204 | 45 | 356 | 1.0 | 5.0 | 0.01 | 0.40 | 0.40 | 95 | 1010.9 |
| 20260506032703 | 46 | 6 | 1.0 | 5.0 | 0.01 | 0.40 | 0.40 | 95 | 1011.0 |
| 20260506032204 | 46 | 85 | 0.0 | 5.0 | 0.01 | 0.40 | 0.40 | 95 | 1010.9 |
| 20260506031704 | 46 | 346 | 0.0 | 2.0 | 0.01 | 0.40 | 0.40 | 95 | 1010.8 |
| 20260506030204 | 46 | 5 | 0.0 | 0.0 | 0.00 | 0.39 | 0.39 | 94 | 1010.8 |
| 20260506025703 | 46 | 175 | 0.0 | 1.0 | 0.00 | 0.39 | 0.39 | 95 | 1010.9 |
| 20260506025204 | 46 | 338 | 0.0 | 1.0 | 0.00 | 0.39 | 0.39 | 94 | 1010.8 |
| 20260506023704 | 46 | 317 | 2.0 | 7.0 | 0.00 | 0.39 | 0.39 | 95 | 1009.7 |
| 20260506023203 | 46 | 1 | 1.0 | 5.0 | 0.00 | 0.39 | 0.39 | 95 | 1009.7 |
| 20260506022704 | 46 | 352 | 1.0 | 2.0 | 0.00 | 0.39 | 0.39 | 96 | 1009.9 |
| 20260506022204 | 46 | 282 | 0.0 | 2.0 | 0.00 | 0.39 | 0.39 | 96 | 1009.9 |
| 20260506021704 | 46 | 281 | 0.0 | 3.0 | 0.00 | 0.39 | 0.39 | 95 | 1009.6 |
| 20260506021203 | 46 | 24 | 1.0 | 3.0 | 0.00 | 0.39 | 0.39 | 96 | 1009.6 |
| 20260506020704 | 46 | 67 | 1.0 | 3.0 | 0.00 | 0.39 | 0.39 | 96 | 1009.4 |
| 20260506020204 | 46 | 44 | 2.0 | 3.0 | 0.00 | 0.39 | 0.39 | 95 | 1009.3 |
| 20260506015703 | 46 | 59 | 0.0 | 3.0 | 0.00 | 0.39 | 0.39 | 96 | 1009.3 |
| 20260506015204 | 46 | 54 | 0.0 | 3.0 | 0.00 | 0.39 | 0.39 | 95 | 1009.3 |
| 20260506014203 | 46 | 315 | 0.0 | 0.0 | 0.00 | 0.39 | 0.39 | 96 | 1009.3 |
| 20260506013704 | 46 | 271 | 0.0 | 0.0 | 0.00 | 0.39 | 0.39 | 95 | 1009.2 |
| 20260506013204 | 46 | 305 | 0.0 | 1.0 | 0.00 | 0.39 | 0.39 | 95 | 1009.3 |
| 20260506012704 | 46 | 256 | 1.0 | 3.0 | 0.00 | 0.39 | 0.39 | 95 | 1009.1 |
| 20260506012203 | 46 | 344 | 1.0 | 3.0 | 0.00 | 0.39 | 0.39 | 95 | 1009.0 |
| 20260506010203 | 46 | 301 | 1.0 | 6.0 | 0.00 | 0.39 | 0.39 | 95 | 1008.9 |
| 20260506005703 | 46 | 312 | 1.0 | 2.0 | 0.00 | 0.39 | 0.39 | 95 | 1008.8 |
| 20260506005204 | 46 | 9 | 1.0 | 7.0 | 0.00 | 0.39 | 0.39 | 95 | 1008.9 |
| 20260506004203 | 46 | 8 | 2.0 | 6.0 | 0.00 | 0.39 | 0.39 | 95 | 1008.4 |